Location: Caltech
(34.1382°N, 118.1253°W)
Time: 10:35:41
(UTC-07:00)

CZ-2C R/B - Visible Passes

Search period start: 23 April 2018 00:00
Search period end: 03 May 2018 00:00
Orbit: 704 x 908 km, 98.2° (Epoch: 23 April)

Date Brightness Start Highest point End Pass type
(mag) Time Alt. Az. Time Alt. Az. Time Alt. Az.
23 Apr 5.3 22:20:49 13° NNE 22:20:49 13° NNE 22:21:34 10° NNE visible
24 Apr 5.8 00:01:53 12° NNW 00:01:53 12° NNW 00:02:15 10° NNW visible
24 Apr 5.4 23:36:39 17° NNW 23:36:39 17° NNW 23:37:44 10° NNW visible
25 Apr 5.1 23:11:25 20° N 23:11:25 20° N 23:12:54 10° N visible
26 Apr 5.0 22:46:11 19° NNE 22:46:11 19° NNE 22:47:45 10° N visible
27 Apr 5.1 22:20:57 15° NE 22:20:57 15° NE 22:22:12 10° NNE visible
28 Apr 5.6 00:02:01 14° NW 00:02:01 14° NW 00:02:47 10° NNW visible
28 Apr 5.2 23:36:47 20° NNW 23:36:47 20° NNW 23:38:17 10° NNW visible
29 Apr 4.9 23:11:33 24° N 23:11:33 24° N 23:13:28 10° N visible
30 Apr 4.8 22:46:20 22° NNE 22:46:20 22° NNE 22:48:22 10° N visible
01 May 5.0 22:21:06 17° NE 22:21:06 17° NE 22:22:51 10° NNE visible
02 May 5.5 00:02:09 16° NW 00:02:09 16° NW 00:03:19 10° NNW visible
02 May 5.3 21:55:52 11° NE 21:55:52 11° NE 21:56:19 10° NE visible
02 May 5.0 23:36:56 23° NNW 23:36:56 23° NNW 23:38:52 10° NNW visible
